TimeEDT,TemperatureF,Dew PointF,Humidity,Sea Level PressureIn,VisibilityMPH,Wind Direction,Wind SpeedMPH,Gust SpeedMPH,PrecipitationIn,Events,Conditions,WindDirDegrees,DateUTC
12:52 AM,41.0,37.0,86,30.11,10.0,North,5.8,-,N/A,,Overcast,350,2013-04-24 04:52:00
1:52 AM,41.0,37.9,89,30.09,10.0,NNW,8.1,-,N/A,,Overcast,340,2013-04-24 05:52:00
2:45 AM,41.0,39.2,93,30.06,10.0,North,10.4,-,N/A,,Overcast,350,2013-04-24 06:45:00
2:52 AM,42.1,39.0,89,30.06,10.0,North,8.1,-,N/A,,Overcast,360,2013-04-24 06:52:00
3:52 AM,41.0,37.9,89,30.04,10.0,NNW,5.8,-,N/A,,Overcast,340,2013-04-24 07:52:00
4:52 AM,41.0,37.9,89,30.04,10.0,NW,8.1,-,N/A,,Overcast,320,2013-04-24 08:52:00
4:59 AM,41.0,37.4,87,30.03,10.0,NW,9.2,-,N/A,,Overcast,320,2013-04-24 08:59:00
5:52 AM,41.0,37.9,89,30.03,10.0,North,4.6,-,N/A,,Overcast,360,2013-04-24 09:52:00
6:52 AM,42.1,37.9,85,30.03,10.0,NW,9.2,-,N/A,,Overcast,320,2013-04-24 10:52:00
7:52 AM,43.0,39.0,86,30.04,10.0,NNW,10.4,-,N/A,,Overcast,340,2013-04-24 11:52:00
9:50 AM,50.0,41.0,71,29.97,10.0,Calm,Calm,-,N/A,,Scattered Clouds,0,2013-04-24 13:50:00
9:52 AM,50.0,41.0,71,29.98,10.0,Calm,Calm,-,N/A,,Partly Cloudy,0,2013-04-24 13:52:00
10:52 AM,55.9,42.1,60,29.96,10.0,Variable,3.5,-,N/A,,Clear,0,2013-04-24 14:52:00
11:52 AM,63.0,42.1,46,29.94,10.0,Calm,Calm,-,N/A,,Clear,0,2013-04-24 15:52:00
12:52 PM,66.9,39.0,36,29.89,10.0,SW,5.8,-,N/A,,Clear,230,2013-04-24 16:52:00
1:52 PM,69.1,39.9,35,29.84,10.0,South,9.2,-,N/A,,Clear,170,2013-04-24 17:52:00
2:52 PM,70.0,37.9,31,29.83,10.0,South,15.0,-,N/A,,Clear,190,2013-04-24 18:52:00
3:52 PM,73.0,39.0,29,29.81,10.0,South,11.5,-,N/A,,Mostly Cloudy,180,2013-04-24 19:52:00
4:52 PM,72.0,39.9,31,29.79,10.0,South,13.8,21.9,N/A,,Scattered Clouds,180,2013-04-24 20:52:00
5:52 PM,71.1,39.9,32,29.79,10.0,South,15.0,21.9,N/A,,Clear,190,2013-04-24 21:52:00
6:52 PM,66.9,43.0,42,29.78,10.0,South,11.5,-,N/A,,Clear,180,2013-04-24 22:52:00
7:52 PM,64.0,44.1,48,29.80,10.0,South,10.4,-,N/A,,Clear,170,2013-04-24 23:52:00
8:52 PM,60.1,45.0,57,29.82,10.0,South,16.1,24.2,N/A,,Clear,190,2013-04-25 00:52:00
9:52 PM,57.0,46.0,67,29.83,10.0,South,12.7,21.9,N/A,,Clear,180,2013-04-25 01:52:00
10:52 PM,53.1,46.0,77,29.82,10.0,South,11.5,-,N/A,,Clear,170,2013-04-25 02:52:00
11:52 PM,51.1,46.0,83,29.83,10.0,SE,5.8,-,N/A,,Mostly Cloudy,130,2013-04-25 03:52:00